Location: *
(40.7873°S, 98.7174°E)
Time: 12:40:46
(UTC+00:00)

Kosmos-1816 - Visible Passes

Search period start: 18 June 2024 00:00
Search period end: 28 June 2024 00:00
Orbit: 958 x 1008 km, 82.9° (Epoch: 17 June)

Date Brightness Start Highest point End Pass type
(mag) Time Alt. Az. Time Alt. Az. Time Alt. Az.
18 Jun 7.6 10:54:54 10° SE 10:56:45 12° ESE 10:56:45 12° ESE visible
18 Jun 6.5 12:37:16 10° S 12:50:00 11° N 12:50:06 10° N visible
18 Jun 8.5 14:24:53 10° SW 14:34:34 - NW 14:26:44 14° WSW visible
19 Jun 7.0 11:20:30 10° SSE 11:25:26 22° ESE 11:30:16 10° ENE visible
19 Jun 6.5 13:05:06 10° SSW 13:11:24 58° W 13:17:35 10° NNW visible
20 Jun 6.4 11:47:28 10° S 11:53:32 41° ESE 11:59:26 10° NE visible
20 Jun 7.6 13:33:21 10° SSW 13:38:51 31° W 13:44:15 10° NW visible
20 Jun 8.9 23:36:36 10° ENE 23:39:17 13° ESE 23:41:58 10° SE visible
21 Jun 7.6 10:32:49 10° SE 10:34:40 11° ESE 10:36:31 10° E visible
21 Jun 5.9 12:14:55 10° S 12:21:23 76° E 12:27:42 10° NNE visible
21 Jun 8.5 14:02:25 10° SW 14:06:05 16° W 14:09:44 10° WNW visible
22 Jun 8.4 00:01:24 10° NE 00:06:28 25° E 00:11:35 10° SSE visible
22 Jun 7.1 10:58:13 10° SSE 11:03:01 22° ESE 11:07:46 10° ENE visible
22 Jun 6.5 12:42:44 10° SSW 12:49:02 59° W 12:55:13 10° N visible
23 Jun 6.4 11:25:08 10° S 11:31:08 39° ESE 11:36:59 10° NE visible
23 Jun 7.6 13:10:57 10° SSW 13:16:29 32° W 13:21:56 10° NW visible
23 Jun 8.9 23:14:28 10° E 23:16:57 12° ESE 23:19:26 10° SE visible
24 Jun 5.9 11:52:33 10° S 11:59:01 73° E 12:05:18 10° NNE visible
24 Jun 8.5 13:39:57 10° SW 13:43:44 17° W 13:47:29 10° WNW visible
24 Jun 8.4 23:39:07 10° NE 23:44:06 25° E 23:49:09 10° SSE visible
25 Jun 7.1 10:35:55 10° SSE 10:40:37 21° ESE 10:45:15 10° ENE visible
25 Jun 6.5 12:20:21 10° SSW 12:26:40 61° W 12:32:50 10° N visible
26 Jun 7.3 00:05:26 10° NNE 00:11:29 46° E 00:17:37 10° SSE visible
26 Jun 6.5 11:02:48 10° S 11:08:44 38° ESE 11:14:32 10° NE visible
26 Jun 7.6 12:48:33 10° SSW 12:54:07 32° W 12:59:36 10° NNW visible
26 Jun 9.0 22:52:21 10° E 22:54:36 12° ESE 22:56:51 10° ESE visible
27 Jun 5.9 11:30:12 10° S 11:36:38 71° E 11:42:53 10° NNE visible
27 Jun 8.6 13:17:29 10° SW 13:21:22 17° W 13:25:13 10° WNW visible
27 Jun 8.4 23:16:49 10° NE 23:21:45 24° E 23:26:44 10° SSE visible
